Zurück zum Katalog

STARLINK-36735

AktivKommunikationVLEO
NORAD 68976·PAYLOAD·🇺🇸 United States

Gestartet May 1, 2026 von Cape Canaveral Space Force Station

Loading…

Nächste Überflüge (nächste 24 Stunden)

TLE

AktuellSource: CelesTrak SupGP

Epoche: Sep 15, 2026, 03:12 UTC

1 68976C 26099AB  26258.13381944 -.00001677  00000+0 -49537-4 0  2580
2 68976  53.1562 100.5817 0001247  95.9886 297.7914 15.34392591    13

Verfolge STARLINK-36735 in Echtzeit mit AllMySat

Download on the App Store